EST,Max TemperatureF,Mean TemperatureF,Min TemperatureF,Max Dew PointF,MeanDew PointF,Min DewpointF,Max Humidity, Mean Humidity, Min Humidity, Max Sea Level PressureIn, Mean Sea Level PressureIn, Min Sea Level PressureIn, Max VisibilityMiles, Mean VisibilityMiles, Min VisibilityMiles, Max Wind SpeedMPH, Mean Wind SpeedMPH, Max Gust SpeedMPH,PrecipitationIn, CloudCover, Events, WindDirDegrees
2014-1-1,35,27,19,24,19,11,82,70,52,30.40,30.31,30.17,10,9,5,9,2,,0.00,1,,72
2014-1-2,30,24,19,25,21,16,93,85,72,30.14,29.83,29.67,10,4,0,12,8,,0.20,5,Fog-Snow,51
2014-1-3,21,12,3,18,5,-6,93,71,39,30.50,30.01,29.67,10,5,1,29,14,45,0.01,5,Snow,332
2014-1-4,27,12,-2,12,4,-6,88,71,47,30.54,30.41,30.28,10,8,4,10,4,,0.00,0,,117
2014-1-5,46,26,7,47,25,5,100,92,80,30.28,30.10,29.66,8,2,0,13,3,,0.22,6,Fog-Rain,85
2014-1-6,50,29,6,50,33,-10,100,81,43,30.00,29.61,29.44,10,6,0,30,15,41,0.14,6,Fog-Rain,247
2014-1-7,10,5,0,-5,-12,-16,60,48,40,30.44,30.28,30.01,10,10,10,26,19,36,0.00,1,,278
2014-1-8,21,13,5,10,0,-5,70,54,38,30.59,30.52,30.44,10,10,10,10,5,,0.00,4,,260
2014-1-9,30,24,18,20,15,11,81,65,50,30.67,30.59,30.50,10,9,7,7,1,,0.00,3,,85
2014-1-10,36,31,26,34,29,19,100,89,69,30.55,30.36,30.14,10,3,0,6,2,,0.28,8,Fog-Rain-Snow,70
2014-1-11,57,46,35,55,44,34,100,96,88,30.09,29.70,29.38,10,3,0,28,5,38,1.01,8,Fog-Rain,205
2014-1-12,44,36,28,40,29,27,92,70,60,30.12,29.87,29.52,10,10,7,18,11,24,0.00,5,,291
2014-1-13,52,40,27,35,31,24,92,73,50,30.11,30.00,29.85,10,8,3,12,4,,0.00,0,,150
2014-1-14,46,40,32,45,41,32,100,94,63,29.90,29.77,29.69,10,3,0,7,3,,0.22,8,Fog-Rain,273
2014-1-15,41,34,28,37,32,24,100,91,64,29.97,29.93,29.89,10,3,0,9,2,,0.00,8,Fog,62
2014-1-16,36,30,24,23,17,14,81,56,42,30.00,29.95,29.87,10,10,8,13,7,,0.00,4,Snow,295
2014-1-17,39,32,24,27,24,19,82,73,58,29.96,29.91,29.82,10,9,6,6,2,,0.00,3,,90
2014-1-18,33,26,18,30,19,8,100,73,51,29.97,29.85,29.79,10,8,1,21,12,31,0.02,5,Snow,295
2014-1-19,37,28,18,22,15,8,66,59,52,29.94,29.80,29.69,10,10,10,13,7,,0.00,4,,244
2014-1-20,43,36,30,27,23,19,69,59,45,29.88,29.73,29.64,10,10,10,15,6,,0.00,5,,263
2014-1-21,34,22,8,21,12,-6,93,78,53,29.96,29.89,29.82,10,3,0,20,11,28,0.12,7,Fog-Snow,32
2014-1-22,12,6,0,-3,-7,-11,69,56,45,30.06,29.98,29.92,10,10,2,16,11,,0.00,0,,308
2014-1-23,19,11,3,8,1,-3,76,64,53,30.39,30.21,30.07,10,10,6,15,6,,0.00,3,Snow,280
2014-1-24,16,10,3,-2,-3,-5,66,54,43,30.48,30.34,30.05,10,10,10,13,10,,0.00,0,,252
2014-1-25,25,21,17,21,11,-3,93,70,41,30.00,29.59,29.44,10,6,0,23,8,31,0.00,6,Fog-Snow,216
2014-1-26,24,18,12,16,8,-3,80,62,44,29.92,29.81,29.63,10,9,2,18,11,28,0.00,5,Snow,242
2014-1-27,36,26,12,24,10,-5,81,58,40,30.17,29.85,29.62,10,10,9,26,7,37,0.00,3,,313
2014-1-28,12,9,6,3,-5,-9,73,51,42,30.44,30.33,30.18,10,9,2,15,10,20,0.00,4,Snow,297
2014-1-29,18,10,3,4,-4,-10,76,50,36,30.35,30.25,30.20,10,10,6,16,7,,0.00,1,,276
2014-1-30,24,12,0,5,0,-6,83,57,42,30.49,30.36,30.19,10,9,5,12,2,,0.00,0,,127
2014-1-31,34,25,16,24,16,7,82,66,50,30.24,30.17,30.11,10,8,5,4,1,,0.00,5,,316